• In Netherlands
  • List of Countries
  • For 7 days
  • Water Temperature
  • Satellite Maps
  • Weather Map
  • Weather Widgets
  • user-avatar
    Login

    Hourly Weather Kislickiy

    Today, 15 August, Wednesday

    Time Temperature Precipitation Wind Pressure Humidity
    00:00 +25°C° 0 mm 4 mps 752 mmHg 42%
    01:00 +24°C° 0 mm 3 mps 752 mmHg 43%
    02:00 +22°C° 0 mm 3 mps 752 mmHg 43%
    03:00 +22°C° 0 mm 3 mps 752 mmHg 44%
    04:00 +22°C° 0 mm 3 mps 752 mmHg 46%
    05:00 +21°C° 0 mm 3 mps 752 mmHg 47%
    06:00 +21°C° 0 mm 3 mps 752 mmHg 49%
    07:00 +24°C° 0 mm 3 mps 752 mmHg 45%
    08:00 +26°C° 0 mm 3 mps 752 mmHg 41%
    09:00 +29°C° 0 mm 3 mps 752 mmHg 38%
    10:00 +30°C° 0 mm 3 mps 752 mmHg 34%
    11:00 +33°C° 0 mm 3 mps 752 mmHg 31%
    12:00 +34°C° 0 mm 3 mps 752 mmHg 28%
    13:00 +35°C° 0 mm 3 mps 752 mmHg 26%
    14:00 +35°C° 0 mm 2 mps 751 mmHg 25%
    15:00 +36°C° 0 mm 2 mps 751 mmHg 23%
    16:00 +36°C° 0 mm 2 mps 751 mmHg 24%
    17:00 +35°C° 0 mm 2 mps 751 mmHg 25%
    18:00 +35°C° 0 mm 2 mps 750 mmHg 25%
    19:00 +32°C° 0 mm 2 mps 751 mmHg 28%
    20:00 +30°C° 0 mm 3 mps 751 mmHg 31%
    21:00 +29°C° 0 mm 3 mps 751 mmHg 33%
    22:00 +28°C° 0 mm 3 mps 751 mmHg 35%
    23:00 +27°C° 0 mm 4 mps 751 mmHg 36%

    Tomorrow, 16 August, Thursday

    Time Temperature Precipitation Wind Pressure Humidity
    00:00 +26°C° 0 mm 4 mps 751 mmHg 37%
    01:00 +26°C° 0 mm 4 mps 751 mmHg 38%
    02:00 +25°C° 0 mm 4 mps 751 mmHg 38%
    03:00 +25°C° 0 mm 4 mps 751 mmHg 38%
    04:00 +24°C° 0 mm 3 mps 751 mmHg 39%
    05:00 +24°C° 0 mm 3 mps 751 mmHg 41%
    06:00 +24°C° 0 mm 3 mps 751 mmHg 42%
    07:00 +26°C° 0 mm 3 mps 751 mmHg 39%
    08:00 +28°C° 0 mm 3 mps 751 mmHg 36%
    09:00 +30°C° 0 mm 3 mps 751 mmHg 33%
    10:00 +33°C° 0 mm 3 mps 751 mmHg 30%
    11:00 +35°C° 0 mm 4 mps 751 mmHg 27%
    12:00 +36°C° 0 mm 4 mps 751 mmHg 24%
    13:00 +37°C° 0 mm 4 mps 750 mmHg 23%
    14:00 +37°C° 0 mm 4 mps 750 mmHg 22%
    15:00 +37°C° 0 mm 4 mps 750 mmHg 21%
    16:00 +37°C° 0 mm 4 mps 749 mmHg 22%
    17:00 +36°C° 0 mm 4 mps 749 mmHg 23%
    18:00 +36°C° 0 mm 3 mps 749 mmHg 24%
    19:00 +34°C° 0 mm 4 mps 749 mmHg 26%
    20:00 +32°C° 0 mm 4 mps 749 mmHg 29%
    21:00 +29°C° 0 mm 4 mps 750 mmHg 31%
    22:00 +28°C° 0 mm 4 mps 750 mmHg 31%
    23:00 +28°C° 0 mm 4 mps 749 mmHg 32%

    Day after tomorrow, 17 August, Friday

    Time Temperature Precipitation Wind Pressure Humidity
    00:00 +27°C° 0 mm 4 mps 749 mmHg 32%
    01:00 +26°C° 0 mm 4 mps 749 mmHg 33%
    02:00 +26°C° 0 mm 3 mps 749 mmHg 34%
    03:00 +25°C° 0 mm 3 mps 749 mmHg 36%
    04:00 +25°C° 0 mm 3 mps 749 mmHg 37%
    05:00 +24°C° 0 mm 3 mps 749 mmHg 38%
    06:00 +24°C° 0 mm 3 mps 749 mmHg 40%
    07:00 +26°C° 0 mm 3 mps 749 mmHg 37%
    08:00 +29°C° 0 mm 3 mps 750 mmHg 35%
    09:00 +31°C° 0 mm 3 mps 750 mmHg 32%
    10:00 +33°C° 0 mm 4 mps 750 mmHg 29%
    11:00 +35°C° 0 mm 4 mps 750 mmHg 26%
    12:00 +36°C° 0 mm 4 mps 749 mmHg 23%
    13:00 +36°C° 0 mm 4 mps 749 mmHg 23%
    14:00 +36°C° 0 mm 4 mps 749 mmHg 23%
    15:00 +36°C° 0 mm 4 mps 749 mmHg 23%
    16:00 +36°C° 0 mm 4 mps 748 mmHg 24%
    17:00 +35°C° 0 mm 4 mps 748 mmHg 25%
    18:00 +34°C° 0 mm 4 mps 748 mmHg 26%
    19:00 +33°C° 0 mm 5 mps 749 mmHg 28%
    20:00 +32°C° 0 mm 5 mps 749 mmHg 30%
    21:00 +30°C° 0 mm 5 mps 749 mmHg 31%
    22:00 +30°C° 0 mm 5 mps 749 mmHg 32%
    23:00 +29°C° 0 mm 5 mps 749 mmHg 32%

    18 August, Saturday

    Time Temperature Precipitation Wind Pressure Humidity
    00:00 +29°C° 0 mm 4 mps 749 mmHg 33%
    01:00 +28°C° 0 mm 4 mps 749 mmHg 34%
    02:00 +27°C° 0 mm 4 mps 749 mmHg 36%
    03:00 +26°C° 0 mm 4 mps 749 mmHg 37%
    04:00 +26°C° 0 mm 4 mps 749 mmHg 39%
    05:00 +26°C° 0 mm 4 mps 749 mmHg 40%
    06:00 +25°C° 0 mm 4 mps 749 mmHg 41%
    07:00 +27°C° 0 mm 4 mps 750 mmHg 38%
    08:00 +29°C° 0 mm 4 mps 750 mmHg 36%
    09:00 +32°C° 0 mm 5 mps 750 mmHg 33%
    10:00 +33°C° 0 mm 5 mps 750 mmHg 30%
    11:00 +34°C° 0 mm 5 mps 750 mmHg 27%
    12:00 +36°C° 0 mm 5 mps 750 mmHg 24%
    13:00 +36°C° 0 mm 5 mps 750 mmHg 24%
    14:00 +35°C° 0 mm 5 mps 750 mmHg 25%
    15:00 +35°C° 0 mm 4 mps 750 mmHg 26%
    16:00 +34°C° 0 mm 5 mps 750 mmHg 29%
    17:00 +34°C° 0 mm 5 mps 750 mmHg 31%
    18:00 +33°C° 0 mm 5 mps 750 mmHg 33%
    19:00 +32°C° 0 mm 5 mps 750 mmHg 38%
    20:00 +29°C° 0 mm 5 mps 751 mmHg 43%
    21:00 +28°C° 0 mm 5 mps 751 mmHg 48%
    22:00 +27°C° 0 mm 5 mps 751 mmHg 49%
    23:00 +26°C° 0 mm 5 mps 751 mmHg 50%

    19 August, Sunday

    Time Temperature Precipitation Wind Pressure Humidity
    00:00 +26°C° 0 mm 5 mps 751 mmHg 51%
    01:00 +25°C° 0 mm 5 mps 752 mmHg 51%
    02:00 +23°C° 0 mm 5 mps 752 mmHg 50%
    03:00 +22°C° 0 mm 5 mps 752 mmHg 50%
    04:00 +21°C° 0 mm 5 mps 752 mmHg 50%
    05:00 +21°C° 0 mm 5 mps 752 mmHg 51%
    06:00 +20°C° 0 mm 5 mps 753 mmHg 51%
    07:00 +22°C° 0 mm 5 mps 753 mmHg 47%
    08:00 +23°C° 0 mm 5 mps 753 mmHg 42%
    09:00 +26°C° 0 mm 6 mps 753 mmHg 38%
    10:00 +27°C° 0 mm 6 mps 753 mmHg 33%
    11:00 +28°C° 0 mm 5 mps 753 mmHg 29%
    12:00 +29°C° 0 mm 5 mps 752 mmHg 25%
    13:00 +30°C° 0 mm 5 mps 752 mmHg 24%
    14:00 +32°C° 0 mm 5 mps 752 mmHg 22%
    15:00 +32°C° 0 mm 5 mps 752 mmHg 21%
    16:00 +32°C° 0 mm 5 mps 752 mmHg 22%
    17:00 +30°C° 0 mm 5 mps 752 mmHg 23%
    18:00 +30°C° 0 mm 5 mps 751 mmHg 24%
    19:00 +28°C° 0 mm 5 mps 752 mmHg 27%
    20:00 +26°C° 0 mm 4 mps 752 mmHg 31%
    21:00 +23°C° 0 mm 4 mps 752 mmHg 34%
    22:00 +22°C° 0 mm 4 mps 752 mmHg 35%
    23:00 +22°C° 0 mm 4 mps 752 mmHg 36%

    20 August, Monday

    Time Temperature Precipitation Wind Pressure Humidity
    00:00 +21°C° 0 mm 4 mps 752 mmHg 37%
    01:00 +20°C° 0 mm 4 mps 752 mmHg 38%
    02:00 +20°C° 0 mm 4 mps 752 mmHg 38%
    03:00 +19°C° 0 mm 4 mps 752 mmHg 38%
    04:00 +19°C° 0 mm 4 mps 752 mmHg 39%
    05:00 +18°C° 0 mm 4 mps 752 mmHg 41%
    06:00 +18°C° 0 mm 4 mps 752 mmHg 42%
    07:00 +20°C° 0 mm 4 mps 753 mmHg 38%
    08:00 +22°C° 0 mm 5 mps 753 mmHg 34%
    09:00 +25°C° 0 mm 5 mps 753 mmHg 30%
    10:00 +27°C° 0 mm 5 mps 753 mmHg 27%
    11:00 +28°C° 0 mm 4 mps 753 mmHg 24%
    12:00 +30°C° 0 mm 4 mps 753 mmHg 21%
    13:00 +30°C° 0 mm 4 mps 752 mmHg 20%
    14:00 +32°C° 0 mm 4 mps 752 mmHg 19%
    15:00 +33°C° 0 mm 4 mps 752 mmHg 17%
    16:00 +32°C° 0 mm 4 mps 752 mmHg 19%
    17:00 +31°C° 0 mm 3 mps 752 mmHg 20%
    18:00 +30°C° 0 mm 3 mps 752 mmHg 21%
    19:00 +28°C° 0 mm 3 mps 752 mmHg 24%
    20:00 +26°C° 0 mm 3 mps 752 mmHg 26%
    21:00 +24°C° 0 mm 3 mps 752 mmHg 29%
    22:00 +22°C° 0 mm 3 mps 752 mmHg 31%
    23:00 +22°C° 0 mm 3 mps 752 mmHg 32%
    Show more